H1 CPF 2 NER 2022 3 18 9 077 01 glonass137 H2 1705501 9137 42939 2022 3 18 0 0 0 2022 3 21 23 45 0 900 1 1 0 0 0 1 H9 10 0 59656 0.00000 0 -13452342.817 -16503731.752 14043613.952 10 0 59656 900.00000 0 -14142813.286 -17914847.701 11382001.754 10 0 59656 1800.00000 0 -14780851.493 -18967140.475 8499211.349 10 0 59656 2700.00000 0 -15309224.976 -19655258.330 5451236.444 10 0 59656 3600.00000 0 -15672511.710 -19986775.877 2297300.993 10 0 59656 4500.00000 0 -15819608.659 -19981681.649 -901293.961 10 0 59656 5400.00000 0 -15706073.969 -19671357.308 -4082365.656 10 0 59656 6300.00000 0 -15296202.821 -19097092.105 -7184063.419 10 0 59656 7200.00000 0 -14564748.167 -18308195.860 -10146076.553 10 0 59656 8100.00000 0 -13498212.472 -17359790.840 -12910812.106 10 0 59656 9000.00000 0 -12095654.804 -16310376.419 -15424519.051 10 0 59656 9900.00000 0 -10368978.149 -15219269.977 -17638336.381 10 0 59656 10800.00000 0 -8342683.776 -14144032.539 -19509244.533 10 0 59656 11700.00000 0 -6053101.985 -13137988.052 -21000901.598 10 0 59656 12600.00000 0 -3547130.634 -12247941.010 -22084348.135 10 0 59656 13500.00000 0 -880533.384 -11512188.466 -22738567.299 10 0 59656 14400.00000 0 1884132.068 -10958909.803 -22950889.805 10 0 59656 15300.00000 0 4679870.028 -10605001.580 -22717236.313 10 0 59656 16200.00000 0 7437789.758 -10455405.870 -22042192.974 10 0 59656 17100.00000 0 10089730.298 -10502959.683 -20938918.980 10 0 59656 18000.00000 0 12570858.630 -10728771.230 -19428888.112 10 0 59656 18900.00000 0 14822133.957 -11103106.550 -17541469.393 10 0 59656 19800.00000 0 16792536.425 -11586748.690 -15313354.896 10 0 59656 20700.00000 0 18440968.251 -12132771.754 -12787845.779 10 0 59656 21600.00000 0 19737749.026 -12688654.644 -10014010.239 10 0 59656 22500.00000 0 20665643.762 -13198645.069 -7045729.640 10 0 59656 23400.00000 0 21220381.705 -13606273.727 -3940651.355 10 0 59656 24300.00000 0 21410645.319 -13856912.275 -759068.703 10 0 59656 25200.00000 0 21257530.962 -13900266.716 2437250.156 10 0 59656 26100.00000 0 20793504.911 -13692700.601 5586261.367 10 0 59656 27000.00000 0 20060899.541 -13199289.576 8626849.098 10 0 59656 27900.00000 0 19110013.691 -12395520.088 11500010.372 10 0 59656 28800.00000 0 17996897.682 -11268560.120 14149997.848 10 0 59656 29700.00000 0 16780916.579 -9818047.772 16525398.548 10 0 59656 30600.00000 0 15522194.269 -8056363.672 18580127.833 10 0 59656 31500.00000 0 14279045.725 -6008374.881 20274319.692 10 0 59656 32400.00000 0 13105505.056 -3710659.859 21575096.610 10 0 59656 33300.00000 0 12049052.658 -1210245.579 22457204.617 10 0 59656 34200.00000 0 11148636.353 1437091.789 22903501.672 10 0 59656 35100.00000 0 10433068.955 4168893.320 22905290.309 10 0 59656 36000.00000 0 9919868.984 6918366.350 22462488.289 10 0 59656 36900.00000 0 9614592.766 9616919.714 21583633.881 10 0 59656 37800.00000 0 9510685.689 12196781.114 20285725.409 10 0 59656 38700.00000 0 9589858.756 14593588.951 18593897.643 10 0 59656 39600.00000 0 9822974.654 16748851.624 16540940.637 10 0 59656 40500.00000 0 10171406.168 18612172.635 14166669.596 10 0 59656 41400.00000 0 10588809.855 20143149.256 11517157.203 10 0 59656 42300.00000 0 11023240.274 21312865.723 8643842.735 10 0 59656 43200.00000 0 11419515.457 22104918.797 5602534.778 10 0 59656 44100.00000 0 11721733.417 22515932.876 2452326.713 10 0 59656 45000.00000 0 11875832.832 22555543.222 -745553.812 10 0 59656 45900.00000 0 11832088.855 22245848.291 -3928938.733 10 0 59656 46800.00000 0 11547437.569 21620354.582 -7035933.034 10 0 59656 47700.00000 0 10987529.689 20722458.902 -10006123.435 10 0 59656 48600.00000 0 10128425.527 19603532.580 -12781758.168 10 0 59656 49500.00000 0 8957858.386 18320688.963 -15308874.237 10 0 59656 50400.00000 0 7476011.915 16934328.871 -17538349.702 10 0 59656 51300.00000 0 5695777.503 15505567.919 -19426860.232 10 0 59656 52200.00000 0 3642479.761 14093654.325 -20937721.301 10 0 59656 53100.00000 0 1353080.634 12753486.034 -22041599.741 10 0 59656 54000.00000 0 -1125105.469 11533331.422 -22717081.166 10 0 59656 54900.00000 0 -3736132.742 10472848.994 -22951082.699 10 0 59656 55800.00000 0 -6417510.131 9601488.697 -22739103.401 10 0 59656 56700.00000 0 -9102566.429 8937341.217 -22085308.003 10 0 59656 57600.00000 0 -11722996.555 8486482.667 -21002442.648 10 0 59656 58500.00000 0 -14211483.720 8242841.288 -19511584.458 10 0 59656 59400.00000 0 -16504289.044 8188590.782 -17641729.905 10 0 59656 60300.00000 0 -18543701.588 8295052.850 -15429229.900 10 0 59656 61200.00000 0 -20280247.342 8524070.144 -12917082.465 10 0 59656 62100.00000 0 -21674565.855 8829791.047 -10154096.622 10 0 59656 63000.00000 0 -22698876.923 9160790.415 -7193943.551 10 0 59656 63900.00000 0 -23337976.761 9462436.219 -4094113.511 10 0 59656 64800.00000 0 -23589722.845 9679401.679 -914798.787 10 0 59656 65700.00000 0 -23464987.931 9758216.267 2282275.526 10 0 59656 66600.00000 0 -22987085.985 9649747.393 5435049.908 10 0 59656 67500.00000 0 -22190694.943 9311507.456 8482334.548 10 0 59656 68400.00000 0 -21120322.223 8709688.335 11364995.683 10 0 59656 69300.00000 0 -19828378.004 7820836.975 14027101.018 10 0 59656 70200.00000 0 -18372937.581 6633100.769 16417002.066 10 0 59656 71100.00000 0 -16815286.892 5146989.537 18488332.737 10 0 59656 72000.00000 0 -15217354.168 3375621.208 20200905.064 10 0 59656 72900.00000 0 -13639135.114 1344439.773 21521485.276 10 0 59656 73800.00000 0 -12136219.031 -909583.960 22424435.699 10 0 59656 74700.00000 0 -10757518.914 -3339236.735 22892210.493 10 0 59656 75600.00000 0 -9543299.819 -5888780.283 22915696.051 10 0 59656 76500.00000 0 -8523587.313 -8496031.795 22494389.628 10 0 59656 77400.00000 0 -7717021.992 -11094722.200 21636412.712 10 0 59656 78300.00000 0 -7130207.432 -13617035.549 20358358.595 10 0 59656 79200.00000 0 -6757578.454 -15996225.009 18684976.587 10 0 59656 80100.00000 0 -6581794.897 -18169197.487 16648698.327 10 0 59656 81000.00000 0 -6574644.130 -20078959.923 14289014.639 10 0 59656 81900.00000 0 -6698414.116 -21676825.738 11651714.205 10 0 59656 82800.00000 0 -6907679.070 -22924289.423 8787998.276 10 0 59656 83700.00000 0 -7151422.073 -23794491.012 5753488.097 10 0 59656 84600.00000 0 -7375404.657 -24273209.024 2607144.118 10 0 59656 85500.00000 0 -7524682.631 -24359340.165 -589881.869 10 0 59657 0.00000 0 -7546161.016 -24064845.677 -3775438.785 10 0 59657 900.00000 0 -7391079.005 -23414166.456 -6887590.499 10 0 59657 1800.00000 0 -7017318.798 -22443132.221 -9865823.597 10 0 59657 2700.00000 0 -6391439.485 -21197410.484 -12652230.268 10 0 59657 3600.00000 0 -5490348.753 -19730561.329 -15192638.329 10 0 59657 4500.00000 0 -4302540.663 -18101780.244 -17437667.584 10 0 59657 5400.00000 0 -2828846.113 -16373424.416 -19343691.424 10 0 59657 6300.00000 0 -1082663.223 -14608426.712 -20873684.916 10 0 59657 7200.00000 0 910343.037 -12867706.202 -21997942.975 10 0 59657 8100.00000 0 3113060.430 -11207683.731 -22694655.041 10 0 59657 9000.00000 0 5478234.889 -9678006.404 -22950325.508 10 0 59657 9900.00000 0 7950208.030 -8319575.792 -22760032.199 10 0 59657 10800.00000 0 10467015.114 -7162961.639 -22127518.306 10 0 59657 11700.00000 0 12962756.690 -6227266.507 -21065116.330 10 0 59657 12600.00000 0 15370145.776 -5519487.856 -19593505.714 10 0 59657 13500.00000 0 17623125.087 -5034403.083 -17741308.941 10 0 59657 14400.00000 0 19659445.900 -4754981.155 -15544533.884 10 0 59657 15300.00000 0 21423101.517 -4653302.391 -13045873.137 10 0 59657 16200.00000 0 22866514.381 -4691946.609 -10293873.828 10 0 59657 17100.00000 0 23952386.044 -4825790.213 -7341993.849 10 0 59657 18000.00000 0 24655133.122 -5004135.578 -4247562.909 10 0 59657 18900.00000 0 24961849.760 -5173082.117 -1070668.593 10 0 59657 19800.00000 0 24872756.822 -5278038.211 2127010.843 10 0 59657 20700.00000 0 24401119.584 -5266267.299 5283403.956 10 0 59657 21600.00000 0 23572637.944 -5089359.991 8337250.514 10 0 59657 22500.00000 0 22424335.255 -4705527.244 11229289.245 10 0 59657 23400.00000 0 21002992.862 -4081617.265 13903405.758 10 0 59657 24300.00000 0 19363196.287 -3194770.489 16307718.487 10 0 59657 25200.00000 0 17565075.090 -2033642.186 18395581.809 10 0 59657 26100.00000 0 15671831.047 -599140.525 20126487.222 10 0 59657 27000.00000 0 13747157.830 1095351.936 21466845.620 10 0 59657 27900.00000 0 11852659.590 3024283.755 22390636.047 10 0 59657 28800.00000 0 10045375.773 5150755.604 22879908.809 10 0 59657 29700.00000 0 8375514.745 7427823.891 22925133.621 10 0 59657 30600.00000 0 6884490.060 9800234.159 22525386.239 10 0 59657 31500.00000 0 5603340.592 12206513.392 21688369.932 10 0 59657 32400.00000 0 4551599.724 14581335.520 20430271.116 10 0 59657 33300.00000 0 3736660.169 16858062.828 18775451.442 10 0 59657 34200.00000 0 3153660.429 18971358.318 16755981.647 10 0 59657 35100.00000 0 2785897.101 20859760.872 14411025.450 10 0 59657 36000.00000 0 2605745.275 22468116.203 11786084.647 10 0 59657 36900.00000 0 2576047.882 23749762.130 8932119.470 10 0 59657 37800.00000 0 2651915.013 24668376.729 5904560.781 10 0 59657 38700.00000 0 2782856.743 25199411.724 2762233.060 10 0 59657 39600.00000 0 2915158.758 25331050.643 -433790.739 10 0 59657 40500.00000 0 2994399.534 25064651.274 -3621379.934 10 0 59657 41400.00000 0 2968001.641 24414653.559 -6738558.772 10 0 59657 42300.00000 0 2787708.185 23407956.746 -9724716.670 10 0 59657 43200.00000 0 2411878.480 22082792.022 -12521791.837 10 0 59657 44100.00000 0 1807504.659 20487138.222 -15075404.620 10 0 59657 45000.00000 0 951862.906 18676747.481 -17335917.950 10 0 59657 45900.00000 0 -166271.571 16712864.060 -19259403.995 10 0 59657 46800.00000 0 -1545898.104 14659732.321 -20808498.159 10 0 59657 47700.00000 0 -3173584.263 12581998.493 -21953123.916 10 0 59657 48600.00000 0 -5023789.310 10542115.007 -22671074.726 10 0 59657 49500.00000 0 -7059704.802 8597855.709 -22948442.177 10 0 59657 50400.00000 0 -9234577.947 6800045.418 -22779882.464 10 0 59657 51300.00000 0 -11493463.203 5190597.895 -22168716.505 10 0 59657 52200.00000 0 -13775329.728 3800943.249 -21126862.055 10 0 59657 53100.00000 0 -16015437.326 2650909.372 -19674599.391 10 0 59657 54000.00000 0 -18147882.391 1748102.870 -17840175.155 10 0 59657 54900.00000 0 -20108208.167 1087814.015 -15659252.026 10 0 59657 55800.00000 0 -21835970.762 653448.361 -13174214.792 10 0 59657 56700.00000 0 -23277154.163 417465.530 -10433346.146 10 0 59657 57600.00000 0 -24386333.680 342784.424 -7489888.089 10 0 59657 58500.00000 0 -25128497.544 384594.580 -4401007.168 10 0 59657 59400.00000 0 -25480450.754 492496.264 -1226683.678 10 0 59657 60300.00000 0 -25431742.621 612878.089 1971453.499 10 0 59657 61200.00000 0 -24985079.438 691431.002 5131323.489 10 0 59657 62100.00000 0 -24156205.301 675691.749 8191598.068 10 0 59657 63000.00000 0 -22973256.346 517507.808 11092890.801 10 0 59657 63900.00000 0 -21475615.769 175319.149 13778907.437 10 0 59657 64800.00000 0 -19712317.746 -383839.971 16197535.375 10 0 59657 65700.00000 0 -17740067.112 -1182704.150 18301851.267 10 0 59657 66600.00000 0 -15620957.534 -2232574.471 20051027.572 10 0 59657 67500.00000 0 -13419983.257 -3532601.948 21411120.971 10 0 59657 68400.00000 0 -11202447.740 -5069587.852 22355727.936 10 0 59657 69300.00000 0 -9031376.735 -6818310.365 22866495.200 10 0 59657 70200.00000 0 -6965042.810 -8742365.201 22933475.663 10 0 59657 71100.00000 0 -5054703.573 -10795486.457 22555323.058 10 0 59657 72000.00000 0 -3342647.030 -12923293.941 21739321.556 10 0 59657 72900.00000 0 -1860624.601 -15065395.471 20501249.511 10 0 59657 73800.00000 0 -628736.323 -17157757.718 18865079.461 10 0 59657 74700.00000 0 345185.921 -19135247.656 16862519.542 10 0 59657 75600.00000 0 1065672.102 -20934239.351 14532404.473 10 0 59657 76500.00000 0 1549181.387 -22495177.625 11919947.090 10 0 59657 77400.00000 0 1823161.840 -23764991.518 9075864.398 10 0 59657 78300.00000 0 1924642.722 -24699256.378 6055394.568 10 0 59657 79200.00000 0 1898419.298 -25264013.627 2917223.756 10 0 59657 80100.00000 0 1794907.490 -25437171.294 -277656.304 10 0 59657 81000.00000 0 1667759.848 -25209426.006 -3467137.420 10 0 59657 81900.00000 0 1571344.617 -24584667.113 -6589207.161 10 0 59657 82800.00000 0 1558195.522 -23579845.589 -9583159.840 10 0 59657 83700.00000 0 1676541.318 -22224312.914 -12390782.019 10 0 59657 84600.00000 0 1968020.693 -20558657.614 -14957488.859 10 0 59657 85500.00000 0 2465680.228 -18633088.328 -17233388.594 10 0 59658 0.00000 0 3192340.930 -16505431.598 -19174254.026 10 0 59658 900.00000 0 4159403.683 -14238827.170 -20742383.033 10 0 59658 1800.00000 0 5366143.795 -11899220.365 -21907328.926 10 0 59658 2700.00000 0 6799526.488 -9552752.465 -22646490.305 10 0 59658 3600.00000 0 8434550.945 -7263160.718 -22945546.674 10 0 59658 4500.00000 0 10235109.583 -5089294.968 -22798732.927 10 0 59658 5400.00000 0 12155327.192 -3082853.960 -22208947.635 10 0 59658 6300.00000 0 14141324.629 -1286434.808 -21187693.371 10 0 59658 7200.00000 0 16133333.838 268024.091 -19754850.429 10 0 59658 8100.00000 0 18068076.368 1560343.009 -17938288.442 10 0 59658 9000.00000 0 19881306.443 2582699.206 -15773323.340 10 0 59658 9900.00000 0 21510412.582 3339699.993 -13302030.143 10 0 59658 10800.00000 0 22896969.262 3847929.020 -10572424.760 10 0 59658 11700.00000 0 23989132.037 4134986.274 -7637530.558 10 0 59658 12600.00000 0 24743775.917 4238063.477 -4554347.831 10 0 59658 13500.00000 0 25128287.506 4202116.142 -1382746.229 10 0 59658 14400.00000 0 25121935.829 4077710.418 1815698.252 10 0 59658 15300.00000 0 24716764.406 3918636.532 4978898.849 10 0 59658 16200.00000 0 23917967.223 3779390.385 8045462.795 10 0 59658 17100.00000 0 22743732.864 3712630.318 10955881.732 10 0 59658 18000.00000 0 21224563.350 3766716.979 13653684.500 10 0 59658 18900.00000 0 19402096.212 3983440.589 16086530.045 10 0 59658 19800.00000 0 17327478.869 4396031.912 18207219.490 10 0 59658 20700.00000 0 15059363.094 5027541.167 19974608.009 10 0 59658 21600.00000 0 12661602.851 5889653.662 21354399.392 10 0 59658 22500.00000 0 10200750.914 6981992.617 22319808.407 10 0 59658 23400.00000 0 7743457.940 8291939.244 22852078.602 10 0 59658 24300.00000 0 5353881.371 9794978.681 22940845.967 10 0 59658 25200.00000 0 3091211.056 11455558.462 22584341.596 10 0 59658 26100.00000 0 1007413.598 13228424.869 21789429.439 10 0 59658 27000.00000 0 -854711.654 15060382.588 20571478.166 10 0 59658 27900.00000 0 -2463085.027 16892405.394 18954069.108 10 0 59658 28800.00000 0 -3797443.367 18662010.646 16968545.315 10 0 59658 29700.00000 0 -4849936.406 20305799.158 14653409.690 10 0 59658 30600.00000 0 -5625198.403 21762054.715 12053583.073 10 0 59658 31500.00000 0 -6139892.741 22973294.502 9219536.062 10 0 59658 32400.00000 0 -6421749.309 23888663.458 6206310.906 10 0 59658 33300.00000 0 -6508135.878 24466071.656 3072452.211 10 0 59658 34200.00000 0 -6444224.459 24673984.319 -121132.649 10 0 59658 35100.00000 0 -6280830.859 24492788.518 -3312360.983 10 0 59658 36000.00000 0 -6072019.726 23915678.306 -6439186.495 10 0 59658 36900.00000 0 -5872577.278 22949020.358 -9440810.939 10 0 59658 37800.00000 0 -5735459.730 21612184.160 -12258871.473 10 0 59658 38700.00000 0 -5709326.377 19936843.400 -14838579.968 10 0 59658 39600.00000 0 -5836262.619 17965777.642 -17129791.509 10 0 59658 40500.00000 0 -6149790.112 15751224.369 -19087981.045 10 0 59658 41400.00000 0 -6673248.859 13352850.283 -20675109.094 10 0 59658 42300.00000 0 -7418620.207 10835426.739 -21860359.756 10 0 59658 43200.00000 0 -8385840.974 8266306.248 -22620737.042 10 0 59658 44100.00000 0 -9562638.175 5712805.080 -22941508.350 10 0 59658 45000.00000 0 -10924891.802 3239600.727 -22816486.933 10 0 59658 45900.00000 0 -12437510.958 906251.978 -22248148.340 10 0 59658 46800.00000 0 -14055787.142 -1235055.940 -21247578.902 10 0 59658 47700.00000 0 -15727168.396 -3141448.249 -19834257.496 10 0 59658 48600.00000 0 -17393380.466 -4780900.046 -18035674.926 10 0 59658 49500.00000 0 -18992806.519 -6133315.457 -15886798.227 10 0 59658 50400.00000 0 -20463025.986 -7191102.839 -13429390.232 10 0 59658 51300.00000 0 -21743406.381 -7959223.544 -10711197.444 10 0 59658 52200.00000 0 -22777639.559 -8454713.707 -7785021.834 10 0 59658 53100.00000 0 -23516116.027 -8705700.551 -4707694.631 10 0 59658 54000.00000 0 -23918037.634 -8749955.998 -1538971.999 10 0 59658 54900.00000 0 -23953179.867 -8633049.701 1659625.774 10 0 59658 55800.00000 0 -23603229.592 -8406180.424 4826008.829 10 0 59658 56700.00000 0 -22862641.946 -8123778.212 7898722.593 10 0 59658 57600.00000 0 -21738980.210 -7840979.278 10818139.417 10 0 59658 58500.00000 0 -20252724.217 -7611080.766 13527613.709 10 0 59658 59400.00000 0 -18436555.052 -7483083.252 15974578.224 10 0 59658 60300.00000 0 -16334145.599 -7499424.938 18111560.503 10 0 59658 61200.00000 0 -13998507.104 -7694003.344 19897100.022 10 0 59658 62100.00000 0 -11489960.154 -8090568.039 21296548.821 10 0 59658 63000.00000 0 -8873813.932 -8701552.439 22282740.631 10 0 59658 63900.00000 0 -6217849.607 -9527394.203 22836516.007 10 0 59658 64800.00000 0 -3589711.561 -10556373.453 22947093.741 10 0 59658 65700.00000 0 -1054313.863 -11764976.446 22612281.584 10 0 59658 66600.00000 0 1328631.180 -13118770.440 21838522.181 10 0 59658 67500.00000 0 3506860.747 -14573754.214 20640773.103 10 0 59658 68400.00000 0 5437493.003 -16078128.783 19042222.799 10 0 59658 69300.00000 0 7088562.793 -17574415.175 17073847.309 10 0 59658 70200.00000 0 8440098.350 -19001831.344 14773815.595 10 0 59658 71100.00000 0 9484694.831 -20298829.215 12186754.178 10 0 59658 72000.00000 0 10227561.292 -21405685.639 9362884.774 10 0 59658 72900.00000 0 10686039.874 -22267038.425 6357051.103 10 0 59658 73800.00000 0 10888618.109 -22834260.502 3227653.544 10 0 59658 74700.00000 0 10873476.614 -23067571.721 35512.422 10 0 59658 75600.00000 0 10686634.285 -22937798.600 -3157317.715 10 0 59658 76500.00000 0 10379770.174 -22427707.009 -6288759.258 10 0 59658 77400.00000 0 10007815.017 -21532850.768 -9297923.831 10 0 59658 78300.00000 0 9626415.268 -20261899.556 -12126301.463 10 0 59658 79200.00000 0 9289377.839 -18636431.589 -14718902.845 10 0 59658 80100.00000 0 9046204.476 -16690199.148 -17025331.833 10 0 59658 81000.00000 0 8939820.812 -14467897.349 -19000767.061 10 0 59658 81900.00000 0 9004596.674 -12023487.283 -20606833.470 10 0 59658 82800.00000 0 9264741.714 -9418143.473 -21812346.893 10 0 59658 83700.00000 0 9733144.427 -6717911.043 -22593917.545 10 0 59658 84600.00000 0 10410703.783 -3991169.945 -22936401.166 10 0 59658 85500.00000 0 11286181.834 -1306011.510 -22833189.455 10 0 59659 0.00000 0 12336583.657 1272363.866 -22286334.750 10 0 59659 900.00000 0 13528049.488 3684121.791 -21306506.456 10 0 59659 1800.00000 0 14817220.395 5877036.133 -19912781.167 10 0 59659 2700.00000 0 16153022.276 7808410.884 -18132269.650 10 0 59659 3600.00000 0 17478792.181 9446599.335 -15999588.521 10 0 59659 4500.00000 0 18734658.404 10772059.907 -13556186.568 10 0 59659 5400.00000 0 19860074.431 11777905.753 -10849538.691 10 0 59659 6300.00000 0 20796400.400 12469926.638 -7932222.949 10 0 59659 7200.00000 0 21489423.489 12866083.580 -4860898.668 10 0 59659 8100.00000 0 21891711.206 12995498.922 -1695205.468 10 0 59659 9000.00000 0 21964698.412 12896985.626 1503395.309 10 0 59659 9900.00000 0 21680420.092 12617178.846 4672813.980 10 0 59659 10800.00000 0 21022816.697 12208349.578 7751537.380 10 0 59659 11700.00000 0 19988556.873 11725993.392 10679821.643 10 0 59659 12600.00000 0 18587342.631 11226296.560 13400849.580 10 0 59659 13500.00000 0 16841683.691 10763586.901 15861830.317 10 0 59659 14400.00000 0 14786149.867 10387877.086 18015020.047 10 0 59659 15300.00000 0 12466132.169 10142604.039 19818644.435 10 0 59659 16200.00000 0 9936163.567 10062659.705 21237705.288 10 0 59659 17100.00000 0 7257868.502 10172796.106 22244656.420 10 0 59659 18000.00000 0 4497625.653 10486471.865 22819936.078 10 0 59659 18900.00000 0 1724039.991 11005188.922 22952346.079 10 0 59659 19800.00000 0 -994671.910 11718347.722 22639270.544 10 0 59659 20700.00000 0 -3593275.807 12603627.568 21886729.990 10 0 59659 21600.00000 0 -6011986.314 13627876.933 20709269.534 10 0 59659 22500.00000 0 -8198704.581 14748477.256 19129682.852 10 0 59659 23400.00000 0 -10110934.891 15915123.852 17178576.624 10 0 59659 24300.00000 0 -11717301.185 17071949.944 14893783.125 10 0 59659 25200.00000 0 -12998600.988 18159905.233 12319631.538 10 0 59659 26100.00000 0 -13948353.263 19119289.334 9506091.491 10 0 59659 27000.00000 0 -14572817.855 19892333.532 6507804.914 10 0 59659 27900.00000 0 -14890486.376 20425721.901 3383024.721 10 0 59659 28800.00000 0 -14931066.501 20672944.976 192481.024 10 0 59659 29700.00000 0 -14734003.220 20596385.944 -3001802.787 10 0 59659 30600.00000 0 -14346600.231 20169050.431 -6137720.629 10 0 59659 31500.00000 0 -13821821.628 19375865.884 -9154296.611 10 0 59659 32400.00000 0 -13215867.703 18214494.756 -11992875.985 10 0 59659 33300.00000 0 -12585628.197 16695626.220 -14598270.315 10 0 59659 34200.00000 0 -11986121.479 14842733.306 -16919833.951 10 0 59659 35100.00000 0 -11468028.558 12691304.859 -18912450.595 10 0 59659 36000.00000 0 -11075426.589 10287583.867 -20537410.657 10 0 59659 36900.00000 0 -10843817.928 7686864.454 -21763162.413 10 0 59659 37800.00000 0 -10798538.008 4951418.190 -22565922.682 10 0 59659 38700.00000 0 -10953609.208 2148135.675 -22930135.619 10 0 59659 39600.00000 0 -11311088.906 -654018.769 -22848771.136 10 0 59659 40500.00000 0 -11860939.057 -3386634.027 -22323457.642 10 0 59659 41400.00000 0 -12581422.680 -5984452.224 -21364446.889 10 0 59659 42300.00000 0 -13440010.502 -8387834.478 -19990411.836 10 0 59659 43200.00000 0 -14394759.566 -10544990.843 -18228081.569 10 0 59659 44100.00000 0 -15396105.878 -12413882.709 -16111720.307 10 0 59659 45000.00000 0 -16388995.648 -13963719.509 -13682460.548 10 0 59659 45900.00000 0 -17315265.497 -15175988.613 -10987503.117 10 0 59659 46800.00000 0 -18116171.390 -16044976.699 -8079199.537 10 0 59659 47700.00000 0 -18734959.732 -16577762.080 -5014034.523 10 0 59659 48600.00000 0 -19119372.163 -16793679.703 -1851528.382 10 0 59659 49500.00000 0 -19223978.312 -16723282.556 1346919.258 10 0 59659 50400.00000 0 -19012237.925 -16406844.346 4519221.671 10 0 59659 51300.00000 0 -18458205.190 -15892467.541 7603809.853 10 0 59659 52200.00000 0 -17547803.044 -15233877.345 10540826.408 10 0 59659 53100.00000 0 -16279613.414 -14487995.233 13273285.139 10 0 59659 54000.00000 0 -14665149.597 -13712394.758 15748173.934 10 0 59659 54900.00000 0 -12728598.623 -12962747.040 17917479.790 10 0 59659 55800.00000 0 -10506043.651 -12290363.576 19739116.378 10 0 59659 56700.00000 0 -8044197.909 -11739939.672 21177736.701 10 0 59659 57600.00000 0 -5398701.976 -11347593.210 22205415.644 10 0 59659 58500.00000 0 -2632054.214 -11139281.041 22802189.680 10 0 59659 59400.00000 0 188740.772 -11129659.355 22956443.732 10 0 59659 60300.00000 0 2994709.218 -11321435.931 22665137.941 10 0 59659 61200.00000 0 5717526.595 -11705241.604 21933869.962 10 0 59659 62100.00000 0 8292109.784 -12260026.717 20776771.366 10 0 59659 63000.00000 0 10659076.470 -12953966.380 19216239.657 10 0 59659 63900.00000 0 12766970.298 -13745837.124 17282510.461 10 0 59659 64800.00000 0 14574160.068 -14586807.635 15013077.395 10 0 59659 65700.00000 0 16050334.396 -15422568.775 12451970.058 10 0 59659 66600.00000 0 17177529.922 -16195713.527 9648903.500 10 0 59659 67500.00000 0 17950650.550 -16848266.660 6658315.122 10 0 59659 68400.00000 0 18377456.407 -17324257.258 3538307.449 10 0 59659 69300.00000 0 18478023.444 -17572225.035 349517.354 10 0 59659 70200.00000 0 18283697.002 -17547553.908 -2846065.991 10 0 59659 71100.00000 0 17835584.097 -17214533.302 -5986311.006 10 0 59659 72000.00000 0 17182648.731 -16548059.079 -9010157.118 10 0 59659 72900.00000 0 16379491.445 -15534901.146 -11858807.420 10 0 59659 73800.00000 0 15483907.674 -14174483.134 -14476876.708 10 0 59659 74700.00000 0 14554328.769 -12479140.240 -16813471.904 10 0 59659 75600.00000 0 13647254.374 -10473843.385 -18823183.565 10 0 59659 76500.00000 0 12814784.954 -8195400.355 -20466969.045 10 0 59659 77400.00000 0 12102358.845 -5691166.653 -21712910.206 10 0 59659 78300.00000 0 11546789.223 -3017319.250 -22536831.273 10 0 59659 79200.00000 0 11174683.525 -236764.615 -22922765.275 10 0 59659 80100.00000 0 11001311.566 2583232.350 -22863260.425 10 0 59659 81000.00000 0 11029969.535 5373600.442 -22359521.024 10 0 59659 81900.00000 0 11251866.186 8066089.941 -21421380.486 10 0 59659 82800.00000 0 11646535.517 10595867.428 -20067107.253 10 0 59659 83700.00000 0 12182758.181 12903970.634 -18323047.507 10 0 59659 84600.00000 0 12819952.493 14939522.114 -16223111.533 10 0 59659 85500.00000 0 13509976.164 16661610.458 -13808113.670 99